Flag for Canada Weather past 2 weeks in Selkirk, Manitoba, Canada

Now
11 °F

Cold.


Feels Like: 5 °F
Forecast: -1 / 18 °F
Wind: 3 mph from North

Location: Winnipeg The Forks

Current Time: Dec 26, 2014 at 11:23:00 AM

Latest Report: Dec 26, 2014 at 10:00 AM


Visibility: N/A

Pressure: 30.26 "Hg

Humidity: 80%

Dew point: 6 °F

Location of SelkirkLocation

Historic Weather in Selkirk — Graph

°F

Selkirk temperature yesterday

Maximum temperature yesterday: 31 °F (at 4:00 AM)
Minimum temperature yesterday: 24 °F (at 10:00 PM)
Average temperature yesterday: 27 °F

Past Weeks' High & Low Weather Summary

 TemperatureHumidityPressure
High35 °F (Dec 13, 8:00 PM)100% (Dec 13, 11:00 AM)30.47 "Hg (Dec 13, 11:00 AM)
Low1 °F (Dec 17, 7:00 AM)69% (Dec 17, 2:00 PM)29.40 "Hg (Dec 24, 10:00 PM)
Average24 °F89%29.99 "Hg
* Reported Dec 11 10:00 AM — Dec 26 10:00 AM, Selkirk, Weather by CustomWeather, © 2014

Note: Actual official high and low records may vary slightly from our data, if they occured in-between our weather recording intervals... More about our weather records

Advertising

Selkirk weather history for previous 24 hours

 ConditionsComfort  
Time TempWeatherWind HumidityBarometerVisibility
10:00 AM
Dec 26
11 °FCold.3 mph80%30.26 "HgN/A
9:00 AM11 °FCold.2 mph83%30.24 "HgN/A
8:00 AM13 °FCold.5 mph75%30.22 "HgN/A
7:00 AM13 °FCold.6 mph83%30.20 "HgN/A
6:00 AM14 °FCold.5 mph81%30.17 "HgN/A
5:00 AM15 °FCold.6 mph78%30.15 "HgN/A
4:00 AM15 °FCold.6 mph79%30.13 "HgN/A
3:00 AM17 °FCold.7 mph79%30.12 "HgN/A
2:00 AM19 °FCold.6 mph79%30.10 "HgN/A
1:00 AM23 °FCold.6 mph87%30.08 "HgN/A
12:00 AM24 °FCold.5 mph85%30.07 "HgN/A
11:00 PM
Dec 25
24 °FCold.5 mph89%30.05 "HgN/A
10:00 PM24 °FCold.5 mph89%30.01 "HgN/A
9:00 PM25 °FChilly.2 mph86%30.00 "HgN/A
8:00 PM25 °FChilly.3 mph88%29.99 "HgN/A
7:00 PM25 °FChilly.5 mph85%29.97 "HgN/A
6:00 PM26 °FChilly.3 mph83%29.94 "HgN/A
5:00 PM27 °FChilly.3 mph81%29.92 "HgN/A
4:00 PM26 °FChilly.5 mph81%29.89 "HgN/A
3:00 PM27 °FChilly.7 mph80%29.85 "HgN/A
2:00 PM27 °FChilly.7 mph82%29.81 "HgN/A
1:00 PM27 °FChilly.6 mph82%29.78 "HgN/A
12:00 PM27 °FChilly.6 mph82%29.76 "HgN/A
11:00 AM26 °FChilly.5 mph86%29.74 "HgN/A
Weather by CustomWeather, © 2014

See weather overviewHow to use our weather pages